Powrót do katalogu

STARLINK-35292

AktywnyŁącznośćVLEO
NORAD 66322·PAYLOAD·🇺🇸 United States

Wystrzelony Nov 6, 2025 z Cape Canaveral Space Force Station

Loading…

Następne Przeloty (najbliższe 24 godziny)

TLE

ŚwieżeSource: CelesTrak SupGP

Epoka: Sep 15, 2026, 03:08 UTC

1 66322C 25253D   26258.13104167 -.00055456  00000+0 -20089-2 0  2587
2 66322  43.0027 222.4531 0001296 270.8047 296.0482 15.27601207    15

Śledź STARLINK-35292 w czasie rzeczywistym z AllMySat

Download on the App Store